SCP
0 0 0 0 0 0 -0 -0 0 0 0 0 0 0 0 0 0 0 0 0 0 0 0 0 0 0 0 0 0 0 0 0 0 0 0 0 0 0 0 0 0 0 0
0 0 0 0 0 0 0 -0 0 0 0 0 0 0 0 0 0 0 0 0 0 0 0 0 0 0 0 0 0 0 0 0 0 0 0 0 0 0 0 0 0 0 0
-0 0 0 0 0 0 0 0 0 0 0 0 0 0 0 0 0 0 0 0 0 0 0 0 0 0 0 0 0 0 0 0 0 0 0 0 0 0 0 0 0 0 0
0 0 0 0 0 0 0 0 0 0 0 0 0 0 0 0 0 0 0 0 0 0 0 0 0 0 0 0 0 0 0 0 0 0 0 0 0 0 0 0 0 0 0
0 0 0 0 0 0 0 0 0 0 0 0 0 0 0 0 0 0 0 0 0 0 0 0 0 0 0 0 0 0 0 0 0 0 0 0 0 0 0 0 0 0 0
0 0 0 0 0 0 0 0 0 0 0 0 0 0 0 0 0 0 0 0 0 0 0 0 0 0 0 0 0 0 0 0 0 0 0 0 0 0 0 0 0 0 0
0 0 0 0 0 0 0 0 0 0 0 0 0 0 0 0 0 0 0 0 0 0 0 0 0 0 0 0 0 0 0 0 0 0 0 0 0 0 0 0 0 0 0
0 0 0 0 0 0 0 0 0 0 0 0 0 0 0 0 0 0 0 0 0 0 0 0 0 0 0 0 0 0 0 0 0 0 0 0 0 0 0 0 0 0 0
0 0 0 0 0 0 0 0 0 0 0 0 0 0 0 0 0 0 0 0 0 0 0 0 0 0 0 0 0 0 0 0 0 0 0 0 0 0 0 0 0 0 0
0 0 0 0 0 0 0 0 0 0 0 0 0 0 0 0 0 0 0 0 0 0 0 0 0 0 0 0 0 0 0 0 0 0 0 0 0 0 0 0 0 0 0
0 0 0 0 0 0 0 0 0 0 0 0 0 0 0 0 0 0 0 0 0 0 0 0 0 0 0 0 0 0 0 0 0 0 0 0 0 0 0 0 0 0 0
0 0 0 0 0 0 0 0 0 0 0 0 0 0 0 0 0 0 0 0 0 0 0 0 0 0 0 0 0 0 0 0 0 0 0 0 0 0 0 0 0 0 0
0 0 0 0 0 0 0 0 0 0 0 0 0 0 0 0 0 0 0 0 0 0 0 0 0 0 0 0 0 0 0 0 0 0 0 0 0 0 0 0 0 0 0
0 0 0 0 0 0 0 0 0 0 0 0 0 0 0 0 0 0 0 0 0 0 0 0 0 0 0 0 0 0 0 0 0 0 0 0 0 0 0 0 0 0 0
0 0 0 0 0 0 0 0 0 0 0 0 0 0 0 0 0 0 0 0 0 0 0 0 0 0 0 0 0 0 0 0 0 0 0 0 0 0 0 0 0 0 0
0 0 0 0 0 0 0 0 0 0 0 0 0 0 0 0 0 0 0 0 0 0 0 0 0 0 0 0 0 0 0 0 0 0 0 0 0 0 0 0 0 0 0
0 0 0 0 0 0 0 0 0 0 0 0 0 0 0 0 0 0 0 0 0 0 0 0 0 0 0 0 0 0 0 0 0 0 0 0 0 0 0 0 0 0 0
0 0 0 0 0 0 0 0 0 0 0 0 0 0 0 0 0 0 0 0 0 0 0 0 0 0 0 0 0 0 0 0 0 0 0 0 0 0 0 0 0 0 0
0 0 0 0 0 0 0 0 0 0 0 0 0 0 0 0 0 0 0 0 0 0 0 0 0 0 0 0 0 0 0 0 0 0 0 0 0 0 0 0 -0 0 0
0 0 0 0 0 0 0 0 0 0 0 0 0 0 0 0 0 0 0 0 0 0 0 0 0 0 0 0 0 0 0 0 0 0 0 0 0 0 0 0 0 0 -0
0 0 0 0 0 0 0 0 0 0 0 0 0 0 0 0 0 0 0 0 0 0 0 0 0 0 0 0 0 0 0 0 0 0 0 0 0 0 0 0 0 0 0
0 0 0 0 0 0 0 0 0 0 0 0 0 0 0 0 0 0 0 0 0 0 0 0 0 0 0 0 0 0 0 0 0 0 0 0 0 0 0 0 0 0 0
0 0 0 0 0 0 0 0 0 0 0 0 0 0 0 0 0 0 0 0 0 0 0 0 0 0 0 0 0 0 0 0 0 0 0 0 0 0 0 0 0 0 0
0 0 0 0 0 0 0 0 0 0 0 0 0 0 0 0 0 0 0 0 0 0 0 0 0 0 0 0 0 0 0 0 0 0 0 0 0 0 0 0 0 0 0
0 0 0 0 0 0 0 0 0 0 0 0 0 0 0 0 0 0 0 0 0 0 0 0 0 0 0 0 0 0 0 0 0 0 0 0 0 0 0 0 0 0 0
0 0 0 0 0 0 0 0 0 0 0 0 0 0 0 0 0 0 0 0 0 0 0 0 0 0 0 0 0 0 0 0 0 0 0 0 0 0 0 0 0 0 0
Wind_Speed
2 2 2 2 2 2 2 2 1 1 1 2 2 1 1 1 1 1 2 2 2 2 2 3 3 3 2 2 2 2 3 3 6 6 4 4 5 6 6 5 6 6 7
2 2 2 2 2 2 2 2 2 2 2 2 1 1 1 2 2 2 2 2 2 3 3 3 4 3 3 3 2 3 3 4 5 8 6 5 6 6 6 7 7 6 6
1 1 1 2 2 2 2 1 1 2 2 1 1 2 2 2 2 2 2 2 3 3 3 3 4 4 4 3 3 3 3 4 4 5 7 5 5 5 6 7 7 6 7
1 2 1 1 2 2 1 1 1 2 1 2 2 2 3 3 3 3 3 3 3 3 4 4 4 4 5 4 4 4 4 4 4 5 6 6 6 5 5 6 7 5 7
2 2 1 1 1 1 1 1 1 1 2 2 2 2 2 3 3 3 3 3 3 3 4 4 4 5 6 5 4 4 3 4 4 5 6 6 6 6 5 5 7 7 6
1 1 1 1 1 1 1 1 1 1 2 2 2 3 3 3 4 5 4 3 3 4 5 5 5 5 6 8 9 8 6 5 5 5 6 7 8 7 6 6 6 7 7
1 1 1 1 1 2 1 1 2 2 2 3 3 3 3 4 6 6 5 3 4 4 5 5 5 5 5 4 7 9 9 10 10 8 8 9 8 8 7 7 6 7 8
1 2 2 2 2 2 2 2 3 2 2 3 3 3 4 5 7 7 6 4 4 5 5 5 6 6 5 5 5 6 6 7 8 7 7 8 7 7 6 6 7 8 7
2 3 2 2 3 3 3 3 3 3 3 3 3 3 4 5 7 7 6 3 4 5 5 5 5 6 8 8 6 6 7 7 8 9 10 10 12 12 10 5 5 5 7
3 3 2 2 3 4 4 3 3 3 4 3 4 4 4 5 7 7 7 3 4 5 5 5 6 7 9 9 6 6 7 7 6 6 7 8 8 8 10 6 5 5 6
2 2 2 2 3 3 3 3 3 3 3 3 4 4 4 5 7 8 8 4 4 5 5 5 5 9 10 11 9 6 8 8 5 5 5 5 5 4 4 4 4 5 6
1 2 2 2 2 2 3 3 3 3 3 4 4 5 4 4 5 7 9 8 7 5 5 5 5 10 11 12 9 9 11 8 4 4 4 5 5 5 4 4 5 5 6
1 2 3 2 3 3 3 3 3 3 3 4 4 4 4 3 4 8 9 10 10 6 5 9 10 12 11 8 9 10 7 4 3 4 5 5 5 5 4 4 4 4 6
2 3 2 2 3 3 2 3 3 3 4 4 4 5 4 4 4 3 4 5 7 6 6 6 10 11 9 8 6 6 4 4 4 5 6 5 4 4 4 4 4 4 5
2 3 3 3 3 3 3 3 4 4 5 5 5 4 4 5 6 8 6 4 4 5 5 3 3 4 4 4 4 4 4 4 4 5 5 5 5 5 4 3 3 3 4
3 3 2 2 2 2 2 3 6 6 8 9 9 8 6 8 11 11 11 11 10 9 5 3 4 4 5 5 5 5 4 4 4 4 5 5 5 5 5 4 3 4 5
4 3 2 2 2 2 2 3 4 5 7 9 9 10 9 10 11 11 11 10 10 8 4 4 5 5 5 5 5 5 5 5 4 4 5 5 5 5 5 5 4 4 5
3 3 3 3 3 3 3 3 3 4 5 4 6 9 11 11 11 10 9 7 5 4 4 5 5 5 5 5 5 5 5 4 4 4 5 4 4 5 5 5 5 5 6
3 3 2 2 2 2 3 3 3 4 4 4 4 5 6 9 9 9 7 4 4 5 5 5 5 5 5 5 5 5 5 5 5 5 5 5 5 5 5 5 5 7 6
3 3 3 2 2 2 3 3 3 4 4 4 4 4 3 3 3 4 4 4 5 5 5 6 6 5 5 5 5 5 5 5 5 5 5 5 5 5 6 7 6 6 5
2 2 3 2 3 3 3 3 4 4 4 5 5 5 7 4 5 5 5 5 5 6 6 6 6 6 5 5 5 6 7 6 6 5 5 5 5 5 5 6 6 6 5
2 2 2 3 3 3 3 3 4 4 5 5 5 5 8 5 5 5 6 6 6 6 5 5 6 6 6 6 6 6 7 7 6 6 6 5 5 5 5 6 6 5 5
2 2 2 2 3 3 3 3 3 4 4 5 5 5 4 5 5 6 6 6 5 5 5 5 6 6 6 6 6 7 8 8 7 6 6 6 6 6 5 6 7 7 6
2 2 2 3 3 3 3 3 4 4 5 5 5 5 5 5 6 6 6 6 6 5 5 5 6 8 9 8 6 6 7 8 7 7 8 8 7 6 6 6 6 7 7
2 2 2 3 3 3 3 4 4 4 4 5 5 5 5 5 6 6 6 6 6 6 7 6 6 7 9 10 9 8 9 11 9 7 6 6 7 7 6 7 6 6 6
2 2 2 2 3 3 3 4 4 5 5 5 5 5 5 6 6 6 6 6 6 6 7 6 7 9 9 9 9 10 10 11 10 9 6 5 6 6 6 6 7 6 6
Wind_Direction
182 177 181 183 182 184 199 228 234 230 241 255 231 227 245 263 262 264 278 288 283 292 297 294 297 301 292 290 282 273 270 266 272 286 292 293 293 294 299 295 291 288 289
177 169 180 178 186 203 213 223 228 240 253 251 223 220 251 265 268 263 272 281 280 288 294 297 297 299 293 285 279 278 270 265 266 281 291 291 291 292 293 293 296 295 290
147 147 184 199 205 221 228 228 233 256 263 256 236 234 249 258 262 262 261 267 273 280 287 287 291 295 290 287 286 282 278 278 272 275 286 292 292 294 298 296 291 290 291
158 174 196 207 207 221 234 231 245 251 252 250 251 245 250 255 262 264 265 267 272 281 284 284 286 283 284 283 282 282 284 285 283 279 284 290 290 291 292 299 302 296 290
164 181 194 203 193 191 217 236 247 246 258 259 263 265 264 261 262 261 262 264 271 282 287 285 283 286 290 288 285 283 278 279 281 280 284 289 290 298 296 298 297 302 294
170 215 228 216 208 213 237 248 261 264 268 268 261 262 265 270 284 279 276 273 277 277 282 286 285 285 291 295 297 297 286 274 276 277 281 283 287 292 294 293 300 305 302
207 240 240 226 234 236 240 255 260 266 272 272 273 269 267 274 287 288 286 281 276 277 281 286 288 291 293 290 298 302 298 287 277 272 273 276 284 290 294 296 296 296 292
231 244 244 237 242 244 241 248 260 266 266 271 275 271 274 282 289 291 291 278 273 275 275 278 281 286 289 293 291 294 293 291 287 281 273 277 280 286 284 285 291 294 291
242 244 240 230 234 239 245 250 256 262 264 269 273 270 271 281 287 288 287 278 274 273 272 274 276 277 290 296 293 292 294 294 299 295 289 288 291 294 296 297 295 297 295
246 246 245 229 224 234 244 250 252 252 261 271 275 271 268 274 283 287 288 273 275 279 281 279 277 281 289 294 284 280 283 288 296 303 300 299 297 295 296 289 283 280 287
259 258 255 235 234 239 246 248 250 256 267 270 276 278 270 269 275 280 282 273 268 277 280 282 282 289 289 292 290 280 281 292 296 296 297 297 298 294 291 284 276 270 272
253 257 252 243 242 241 243 254 251 249 262 268 273 280 273 270 270 276 281 280 280 273 274 278 281 290 292 295 295 293 296 300 296 293 290 290 291 290 288 285 278 274 271
264 264 257 251 247 239 234 242 247 243 249 262 265 273 280 277 274 277 280 280 280 274 273 282 289 292 295 295 295 297 299 292 286 283 281 283 286 289 293 293 288 281 280
254 267 265 252 256 249 243 238 238 239 245 254 259 267 275 277 271 266 263 270 275 276 278 285 291 293 294 296 298 294 281 273 270 273 279 283 289 288 285 287 289 294 291
252 257 259 252 249 253 250 244 247 239 233 242 247 250 262 271 272 279 286 279 274 272 292 291 287 288 284 284 283 278 275 272 269 272 277 282 284 284 283 284 280 285 281
250 256 250 250 247 245 256 277 267 260 266 264 265 267 270 273 287 288 289 290 292 292 293 278 278 278 278 282 284 284 278 275 272 272 271 273 277 280 283 283 277 273 278
233 247 251 251 250 252 255 262 286 287 272 273 274 277 277 282 286 291 294 296 295 296 275 269 271 273 275 279 279 278 278 278 279 275 275 277 280 281 283 282 279 276 276
235 241 243 244 245 248 250 254 260 273 289 287 279 279 282 283 285 289 294 301 291 283 262 265 269 271 272 275 277 281 281 280 276 274 271 273 274 277 280 283 280 275 278
231 240 241 247 248 251 254 258 260 264 271 283 293 290 282 285 287 286 288 265 268 271 269 268 269 270 271 271 272 272 274 273 269 266 264 264 266 269 273 275 276 274 273
230 243 239 245 249 250 251 255 261 265 270 274 276 280 286 280 276 278 263 251 255 261 262 264 265 264 266 266 268 268 268 268 267 262 261 259 258 259 266 271 270 269 269
226 238 235 244 244 246 249 253 259 262 266 271 273 279 285 274 270 270 268 259 254 257 260 262 263 263 261 262 260 260 261 261 259 259 259 258 257 261 262 264 265 266 269
216 228 235 243 253 255 257 261 263 266 268 273 282 288 287 280 274 275 273 270 262 257 256 257 261 261 256 255 257 256 258 260 257 255 256 257 256 257 259 263 266 267 265
221 234 245 250 253 261 266 267 267 269 273 276 281 285 281 276 277 277 279 281 278 272 269 265 266 268 264 257 253 251 253 255 254 249 251 256 256 255 256 261 264 267 267
227 238 252 261 261 262 266 271 271 273 276 280 281 280 279 278 278 279 282 283 283 279 273 269 268 270 273 273 266 259 255 255 251 246 244 249 255 256 256 259 261 261 263
226 239 249 256 259 264 270 275 276 276 277 279 281 282 283 283 283 283 283 283 282 280 279 277 275 274 273 273 273 270 271 271 267 256 244 244 248 250 254 258 260 264 266
239 244 250 255 259 262 265 270 274 277 278 279 280 282 283 283 283 285 285 284 284 283 283 280 277 277 278 276 275 276 275 273 272 266 255 246 242 246 247 253 257 258 261